This demonstration page uses our WeatherBlox Daily Observations layout. Learn more.

Left ArrowRight Arrow

39.08367, -84.50855

Hourly Observations for April 3, 2018

Temp ( °F °C ) Dew Point ( °F °C ) Humidity (%) Winds ( mph kmh ) Pressure ( in mb ) Visibility ( mi km ) Precip ( " mm )
12:53 am 00:53 Cloudy with Light Rain 45 7.2 42 5.6 90 90 S 5 7 29.91 1013 8 13 0.01 0.25
1:15 am 01:15 Cloudy with Heavy Rain 45 7.2 43 6.1 93 93 N N/A 29.94 1014 2 3 0.08 2.03
1:21 am 01:21 Cloudy with Nearby Thunderstorms 45 7.2 43 6.1 93 93 N 6 9 29.94 1014 3 5 0.10 2.54
1:33 am 01:33 Cloudy with Strong Thunderstorms 45 7.2 44 6.7 97 97 NNW 6 9 29.94 1014 3 5 0.15 3.81
1:37 am 01:37 Cloudy with Strong Thunderstorms 45 7.2 44 6.7 97 97 WNW 6 9 29.94 1014 2 3 0.21 5.33
1:42 am 01:42 Cloudy with Nearby Thunderstorms 44 6.7 44 6.7 100 100 SSE 3 6 29.94 1014 1 2 0.26 6.60
1:49 am 01:49 Cloudy with Nearby Thunderstorms 45 7 45 7 100 100 N N/A 29.94 1014 3 4 0.27 6.86
1:51 am 01:51 Cloudy with Rain 45 7 45 7 100 100 N N/A 29.94 1014 3 5 0.28 7.11
1:53 am 01:53 Cloudy with Rain 44 6.7 44 6.7 100 100 S 3 6 29.92 1013 3 5 0.28 7.11
2:00 am 02:00 Cloudy with Nearby Thunderstorms 44 6.7 44 6.7 100 100 SE 3 6 29.94 1014 3 5 0.04 1.02
2:02 am 02:02 Cloudy with Nearby Thunderstorms 44 6.7 44 6.7 100 100 N N/A 29.94 1014 3 4 0.04 1.02
2:14 am 02:14 Cloudy with Nearby Thunderstorms 45 7.2 44 6.7 97 97 SSE 6 9 29.91 1013 4 6 0.07 1.78
2:25 am 02:25 Cloudy with Light Rain 45 7.2 44 6.7 97 97 S 6 9 29.91 1013 6 10 0.08 2.03
2:33 am 02:33 Cloudy with Nearby Thunderstorms 45 7.2 44 6.7 97 97 VRB 5 7 29.91 1013 4 6 0.09 2.29
2:42 am 02:42 Cloudy with Thunderstorms 45 7.2 45 7.2 100 100 SSW 7 11 29.91 1013 4 6 0.12 3.05
2:53 am 02:53 Cloudy with Thunderstorms 45 7.2 45 7.2 100 100 S 6 9 29.87 1012 3 5 0.15 3.81
3:01 am 03:01 Cloudy with Nearby Thunderstorms 45 7.2 45 7.2 100 100 S 5 7 29.88 1012 4 6 0.02 0.51
3:03 am 03:03 Cloudy with Thunderstorms 45 7.2 45 7.2 100 100 SSW 6 9 29.88 1012 4 6 0.03 0.76
3:24 am 03:24 Cloudy with Nearby Thunderstorms 46 7.8 46 7.8 100 100 SW 3 6 29.88 1012 4 6 0.05 1.27
3:34 am 03:34 Cloudy with Light Rain 46 7.8 46 7.8 100 100 N N/A 29.88 1012 5 8 0.06 1.52
3:53 am 03:53 Cloudy 47 8.3 46 7.8 97 97 N N/A 29.85 1011 10 16 0.06 1.52
4:53 am 04:53 Mostly Clear 47 8.3 46 7.8 97 97 S 6 9 29.80 1009 10 16 N/A
5:53 am 05:53 Cloudy 48 8.9 47 8.3 96 96 SSW 6 9 29.82 1010 10 16 N/A
6:24 am 06:24 Cloudy with Light Rain 48 8.9 47 8.3 96 96 N N/A 29.85 1011 10 16 0.01 0.25
6:53 am 06:53 Cloudy with Mist and Fog 47 8.3 47 8.3 100 100 N N/A 29.81 1009 6 10 0.01 0.25
6:58 am 06:58 Cloudy with Nearby Thunderstorms 48 8.9 47 8.3 96 96 ENE 3 6 29.83 1010 6 10 N/A
7:26 am 07:26 Cloudy with Light Rain 48 8.9 47 8.3 96 96 NNW 10 17 29.88 1012 6 10 0.04 1.02
7:53 am 07:53 Cloudy 49 9.4 48 8.9 97 97 N N/A 29.85 1011 7 11 0.05 1.27
8:25 am 08:25 Cloudy with Nearby Thunderstorms 49 9.4 49 9.4 100 100 N N/A 29.85 1011 9 14 N/A
8:53 am 08:53 Cloudy with Nearby Thunderstorms 49 9.4 49 9.4 100 100 S 5 7 29.81 1010 6 10 N/A
9:02 am 09:02 Cloudy with Thunderstorms 49 9.4 49 9.4 100 100 W 7 11 29.85 1011 3 4 0.03 0.76
9:09 am 09:09 Cloudy with Strong Thunderstorms 49 9.4 49 9.4 100 100 N N/A 29.83 1010 1 1 0.15 3.81
9:13 am 09:13 Cloudy with Strong Thunderstorms 49 9.4 49 9.4 100 100 N N/A 29.83 1010 2 3 0.17 4.32
9:45 am 09:45 Cloudy with Nearby Thunderstorms 50 10 50 10 100 100 N N/A 29.80 1009 5 8 0.18 4.57
9:53 am 09:53 Cloudy with Mist and Fog 50 10 50 10 100 100 N N/A 29.78 1008 5 8 0.18 4.57
10:53 am 10:53 Cloudy 54 12.2 53 11.7 97 97 W 3 6 29.76 1008 9 14 N/A
11:53 am 11:53 Sunny 63 17.2 58 14.4 84 84 S 10 17 29.75 1007 10 16 N/A
12:53 pm 12:53 Partly Cloudy 70 21.1 63 17.2 79 79 S 8 13 29.69 1006 10 16 N/A
1:53 pm 13:53 Mostly Cloudy 75 23.9 62 16.7 64 64 SSW 21 33 29.64 1004 10 16 N/A
2:53 pm 14:53 Mostly Cloudy 76 24.4 60 15.6 58 58 SSW 16 26 29.62 1003 10 16 N/A
3:53 pm 15:53 Mostly Cloudy 76 24.4 59 15 56 56 SSW 23 37 29.58 1002 10 16 N/A
4:53 pm 16:53 Mostly Cloudy with Thunderstorms 74 23.3 57 13.9 56 56 SW 18 30 29.60 1002 10 16 N/A
5:02 pm 17:02 Mostly Cloudy with Thunderstorms 74 23.3 57 13.9 56 56 SW 16 26 29.59 1002 10 16 N/A
5:39 pm 17:39 Cloudy with Thunderstorms 69 20.6 60 15.6 73 73 S 12 19 29.59 1002 5 8 0.02 0.51
5:53 pm 17:53 Cloudy with Thunderstorms 67 19.4 61 16.1 81 81 S 10 17 29.59 1002 6 10 0.04 1.02
6:15 pm 18:15 Cloudy with Thunderstorms 65 18.3 62 16.7 90 90 SSW 10 17 29.62 1003 4 6 0.13 3.30
6:28 pm 18:28 Cloudy with Thunderstorms 64 17.8 62 16.7 93 93 S 8 13 29.62 1003 7 11 0.14 3.56
6:41 pm 18:41 Cloudy 64 17.8 61 16.1 90 90 S 9 15 29.62 1003 10 16 0.14 3.56
6:53 pm 18:53 Cloudy 63 17.2 61 16.1 93 93 S 9 15 29.60 1002 10 16 0.14 3.56
7:36 pm 19:36 Mostly Cloudy with Thunderstorms 63 17 61 16 94 94 S 9 15 29.56 1001 10 16 N/A
7:53 pm 19:53 Mostly Cloudy with Thunderstorms 63 17 61 16 94 94 SSW 8 13 29.57 1001 10 16 N/A
8:18 pm 20:18 Cloudy with Strong Thunderstorms 62 16.7 60 15.6 93 93 S 15 24 29.56 1001 3 4 0.16 4.06
8:21 pm 20:21 Cloudy with Strong Thunderstorms 61 16.1 61 16.1 100 100 SSW 36 57 29.56 1001 1 2 0.34 8.64
8:23 pm 20:23 Cloudy with Strong Thunderstorms 63 17.2 61 16.1 93 93 SSW 20 31 29.56 1001 2 3 0.37 9.40
8:30 pm 20:30 Cloudy with Thunderstorms 63 17.2 62 16.7 97 97 SW 13 20 29.56 1001 2 3 0.37 9.40
8:37 pm 20:37 Cloudy with Thunderstorms 63 17.2 62 16.7 97 97 SSW 9 15 29.56 1001 8 13 0.37 9.40
8:42 pm 20:42 Cloudy with Light Rain 63 17.2 62 16.7 97 97 SSW 10 17 29.56 1001 10 16 0.37 9.40
8:53 pm 20:53 Cloudy with Light Rain 63 17.2 62 16.7 97 97 S 14 22 29.54 1000 6 10 0.41 10.41
9:53 pm 21:53 Mostly Cloudy with Nearby Thunderstorms 64 17.8 63 17.2 96 96 SSW 15 24 29.55 1001 10 16 N/A
10:19 pm 22:19 Mostly Cloudy 64 17.8 62 16.7 93 93 SSW 16 26 29.56 1001 10 16 N/A
10:53 pm 22:53 Cloudy 64 17.8 60 15.6 87 87 SSW 16 26 29.57 1001 10 16 N/A
11:53 pm 23:53 Mostly Cloudy 64 17.8 59 15 84 84 SSW 20 31 29.54 1001 10 16 N/A

Powered by AerisWeather